Fond du Lac, WI

6:04 PM CDT on September 25, 2017 (GMT -0500)
Fond du Lac County

Weather History for KFLD - November, 2012

Change the Weather History Date:

Monday, November 26, 2012

  Actual Average Record
Temperature  
Mean Temperature 22 °F -  
Max Temperature 30 °F 40 °F 65 °F (1990)
Min Temperature 15 °F 25 °F -5 °F (1977)
Degree Days  
Heating Degree Days 42    
Moisture  
Dew Point 12 °F    
Average Humidity 61    
Maximum Humidity 75    
Minimum Humidity 41    
Precipitation  
Precipitation 0.00 in - - ()
Sea Level Pressure  
Sea Level Pressure 30.27 in    
Wind  
Wind Speed 7 mph (WNW)    
Max Wind Speed 14 mph    
Max Gust Speed 20 mph    
Visibility 10 miles    
Events      
Averages and records for this station are not official NWS values.
T = Trace of Precipitation, MM = Missing Value Source: NWS Daily Summary

Daily Weather History Graph

Daily Weather History Graph

Search for Another Location

Airport or City:

Trip Planner

Search our weather history database for the weather conditions in past years. The results will help you decide how hot, cold, wet, or windy it might be!

Date:

Astronomy

Nov. 26, 2012 Rise Set
Actual Time 7:02 AM CST 4:19 PM CST
Civil Twilight 6:30 AM CST 4:51 PM CST
Nautical Twilight 5:55 AM CST 5:27 PM CST
Astronomical Twilight 5:20 AM CST 6:01 PM CST
Moon 3:13 PM CST (11/26) 5:10 AM CST (11/26)
Length of Visible Light 10h 21m
Length of Day
9h 17m
Waxing Gibbous, 97% of the Moon is Illuminated
Nov 26
Waxing Gibbous
Nov 28
Full
Dec 6
Last Quarter
Dec 13
New
Dec 19
First Quarter

Hourly Weather History & Observations

Time (CST) Temp. Windchill Dew Point Humidity Pressure Visibility Wind Dir Wind Speed Gust Speed Precip Events Conditions
12:53 AM 24.1 °F 17.0 °F 10.9 °F 57% 30.12 in 10.0 mi WNW 5.8 mph - N/A   Mostly Cloudy
1:53 AM 24.1 °F 18.2 °F 10.9 °F 57% 30.14 in 10.0 mi West 4.6 mph - N/A   Mostly Cloudy
2:53 AM 26.1 °F 18.4 °F 16.0 °F 66% 30.14 in 10.0 mi West 6.9 mph - N/A   Overcast
3:53 AM 26.1 °F 20.5 °F 17.1 °F 69% 30.15 in 10.0 mi West 4.6 mph - N/A   Overcast
4:53 AM 26.1 °F 21.9 °F 19.0 °F 75% 30.17 in 10.0 mi WSW 3.5 mph - N/A   Overcast
5:53 AM 26.1 °F 20.5 °F 19.0 °F 75% 30.18 in 10.0 mi WSW 4.6 mph - N/A   Overcast
6:53 AM 27.0 °F 21.6 °F 19.0 °F 72% 30.20 in 10.0 mi WNW 4.6 mph - N/A   Overcast
7:53 AM 27.0 °F 19.5 °F 19.0 °F 72% 30.22 in 10.0 mi WNW 6.9 mph - N/A   Overcast
8:53 AM 28.0 °F 20.0 °F 19.0 °F 69% 30.24 in 10.0 mi NW 8.1 mph - N/A   Overcast
9:53 AM 28.0 °F 17.5 °F 18.0 °F 66% 30.26 in 10.0 mi NNW 12.7 mph - N/A   Overcast
10:00 AM 28.4 °F 18.5 °F 19.4 °F 69% 30.23 in 10.0 mi NNW 11.5 mph - N/A   Overcast
10:22 AM 28.4 °F 19.7 °F 15.8 °F 59% 30.24 in 10.0 mi NNW 9.2 mph - N/A   Overcast
10:53 AM 28.9 °F 20.4 °F 16.0 °F 58% 30.27 in 10.0 mi NW 9.2 mph - N/A   Overcast
11:53 AM 30.9 °F 21.2 °F 12.9 °F 47% 30.28 in 10.0 mi WNW 12.7 mph - N/A   Clear
12:53 PM 30.0 °F 20.5 °F 9.0 °F 41% 30.28 in 10.0 mi NW 11.5 mph 19.6 mph N/A   Clear
1:53 PM 28.9 °F 18.2 °F 9.0 °F 43% 30.28 in 10.0 mi NW 13.8 mph - N/A   Clear
2:53 PM 28.0 °F 18.6 °F 7.0 °F 41% 30.29 in 10.0 mi NW 10.4 mph - N/A   Clear
3:53 PM 25.0 °F 16.3 °F 6.1 °F 45% 30.31 in 10.0 mi NW 8.1 mph - N/A   Clear
4:53 PM 21.9 °F 12.5 °F 7.0 °F 53% 30.33 in 10.0 mi WNW 8.1 mph - N/A   Clear
5:53 PM 19.9 °F 9.3 °F 7.0 °F 57% 30.35 in 10.0 mi WNW 9.2 mph - N/A   Clear
6:53 PM 19.0 °F 10.0 °F 7.0 °F 59% 30.38 in 10.0 mi NW 6.9 mph - N/A   Clear
7:53 PM 17.1 °F 10.0 °F 6.1 °F 62% 30.40 in 10.0 mi NW 4.6 mph - N/A   Clear
8:53 PM 16.0 °F 8.8 °F 6.1 °F 65% 30.40 in 10.0 mi WNW 4.6 mph - N/A   Clear
9:53 PM 16.0 °F 10.4 °F 6.1 °F 65% 30.40 in 10.0 mi West 3.5 mph - N/A   Clear
10:53 PM 15.1 °F 6.4 °F 6.1 °F 68% 30.40 in 10.0 mi West 5.8 mph - N/A   Clear
11:53 PM 15.1 °F 7.7 °F 6.1 °F 68% 30.39 in 10.0 mi West 4.6 mph - N/A   Clear